When you browse on this site, cookies collect data to enhance your experience and personalize the content and advertising you see.
Visit our Privacy Policy to learn more. By continuing to use the site, you agree to this use of cookies and data.

Hourly Weather Marrakesh

Today, 5 August, Wednesday

Time Temperature Precipitation Wind Pressure Humidity
00:00 +27°C° 0 mm 1 mps 719 mmHg 54%
01:00 +26°C° 0 mm 1 mps 719 mmHg 56%
02:00 +26°C° 0 mm 1 mps 718 mmHg 58%
03:00 +25°C° 0 mm 1 mps 718 mmHg 60%
04:00 +23°C° 0 mm 0 mps 718 mmHg 62%
05:00 +23°C° 0 mm 0 mps 718 mmHg 63%
06:00 +26°C° 0 mm 1 mps 718 mmHg 57%
07:00 +28°C° 0 mm 1 mps 718 mmHg 51%
08:00 +29°C° 0 mm 1 mps 719 mmHg 45%
09:00 +32°C° 0 mm 2 mps 719 mmHg 39%
10:00 +35°C° 0 mm 2 mps 719 mmHg 33%
11:00 +37°C° 0 mm 3 mps 719 mmHg 26%
12:00 +39°C° 0 mm 3 mps 719 mmHg 23%
13:00 +40°C° 0 mm 3 mps 719 mmHg 21%
14:00 +42°C° 0 mm 3 mps 718 mmHg 18%
15:00 +42°C° 0 mm 4 mps 719 mmHg 18%
16:00 +42°C° 0 mm 4 mps 719 mmHg 18%
17:00 +41°C° 0 mm 5 mps 720 mmHg 19%
18:00 +38°C° 0 mm 4 mps 720 mmHg 26%
19:00 +35°C° 0 mm 3 mps 720 mmHg 34%
20:00 +31°C° 0 mm 3 mps 720 mmHg 42%
21:00 +30°C° 0 mm 2 mps 720 mmHg 44%
22:00 +29°C° 0 mm 2 mps 720 mmHg 46%
23:00 +29°C° 0 mm 2 mps 720 mmHg 48%

Tomorrow, 6 August, Thursday

Time Temperature Precipitation Wind Pressure Humidity
00:00 +28°C° 0 mm 2 mps 720 mmHg 51%
01:00 +27°C° 0 mm 2 mps 719 mmHg 55%
02:00 +26°C° 0 mm 2 mps 718 mmHg 58%
03:00 +26°C° 0 mm 2 mps 719 mmHg 60%
04:00 +25°C° 0 mm 2 mps 719 mmHg 62%
05:00 +24°C° 0 mm 2 mps 719 mmHg 65%
06:00 +25°C° 0 mm 2 mps 719 mmHg 60%
07:00 +27°C° 0 mm 2 mps 720 mmHg 56%
08:00 +28°C° 0 mm 2 mps 720 mmHg 52%
09:00 +30°C° 0 mm 2 mps 720 mmHg 45%
10:00 +32°C° 0 mm 2 mps 720 mmHg 39%
11:00 +35°C° 0 mm 3 mps 720 mmHg 32%
12:00 +36°C° 0 mm 3 mps 720 mmHg 29%
13:00 +38°C° 0 mm 3 mps 720 mmHg 25%
14:00 +40°C° 0 mm 4 mps 720 mmHg 22%
15:00 +39°C° 0 mm 5 mps 721 mmHg 27%
16:00 +36°C° 0 mm 7 mps 721 mmHg 32%
17:00 +35°C° 0 mm 8 mps 721 mmHg 37%
18:00 +33°C° 0 mm 6 mps 722 mmHg 42%
19:00 +30°C° 0 mm 5 mps 722 mmHg 48%
20:00 +28°C° 0 mm 3 mps 722 mmHg 54%
21:00 +27°C° 0 mm 3 mps 722 mmHg 58%
22:00 +26°C° 0 mm 2 mps 722 mmHg 61%
23:00 +26°C° 0 mm 2 mps 722 mmHg 65%

Day after tomorrow, 7 August, Friday

Time Temperature Precipitation Wind Pressure Humidity
00:00 +25°C° 0 mm 2 mps 722 mmHg 68%
01:00 +24°C° 0 mm 2 mps 722 mmHg 71%
02:00 +24°C° 0 mm 1 mps 721 mmHg 74%
03:00 +23°C° 0 mm 1 mps 721 mmHg 77%
04:00 +23°C° 0 mm 1 mps 722 mmHg 79%
05:00 +22°C° 0 mm 1 mps 722 mmHg 82%
06:00 +24°C° 0 mm 1 mps 722 mmHg 76%
07:00 +25°C° 0 mm 1 mps 722 mmHg 70%
08:00 +26°C° 0 mm 1 mps 723 mmHg 65%
09:00 +28°C° 0 mm 1 mps 723 mmHg 56%
10:00 +30°C° 0 mm 2 mps 723 mmHg 48%
11:00 +34°C° 0 mm 3 mps 723 mmHg 39%
12:00 +35°C° 0 mm 3 mps 723 mmHg 34%
13:00 +37°C° 0 mm 3 mps 723 mmHg 30%
14:00 +38°C° 0 mm 3 mps 723 mmHg 25%
15:00 +38°C° 0 mm 4 mps 723 mmHg 25%
16:00 +38°C° 0 mm 4 mps 723 mmHg 25%
17:00 +39°C° 0 mm 5 mps 723 mmHg 25%
18:00 +35°C° 0 mm 4 mps 723 mmHg 33%
19:00 +33°C° 0 mm 4 mps 724 mmHg 42%
20:00 +29°C° 0 mm 4 mps 724 mmHg 50%
21:00 +28°C° 0 mm 3 mps 724 mmHg 52%
22:00 +28°C° 0 mm 2 mps 724 mmHg 55%
23:00 +27°C° 0 mm 2 mps 723 mmHg 57%

8 August, Saturday

Time Temperature Precipitation Wind Pressure Humidity
00:00 +27°C° 0 mm 2 mps 723 mmHg 59%
01:00 +26°C° 0 mm 1 mps 723 mmHg 60%
02:00 +26°C° 0 mm 1 mps 723 mmHg 61%
03:00 +25°C° 0 mm 1 mps 723 mmHg 62%
04:00 +25°C° 0 mm 1 mps 723 mmHg 64%
05:00 +24°C° 0 mm 1 mps 723 mmHg 65%
06:00 +26°C° 0 mm 1 mps 723 mmHg 60%
07:00 +27°C° 0 mm 2 mps 723 mmHg 55%
08:00 +28°C° 0 mm 2 mps 724 mmHg 50%
09:00 +31°C° 0 mm 2 mps 724 mmHg 45%
10:00 +34°C° 0 mm 2 mps 724 mmHg 39%
11:00 +36°C° 0 mm 2 mps 724 mmHg 34%
12:00 +37°C° 0 mm 2 mps 723 mmHg 30%
13:00 +39°C° 0 mm 2 mps 723 mmHg 26%
14:00 +41°C° 0 mm 2 mps 723 mmHg 22%
15:00 +42°C° 0 mm 3 mps 723 mmHg 22%
16:00 +42°C° 0 mm 4 mps 723 mmHg 21%
17:00 +42°C° 0 mm 5 mps 723 mmHg 20%
18:00 +38°C° 0 mm 4 mps 723 mmHg 26%
19:00 +35°C° 0 mm 4 mps 723 mmHg 32%
20:00 +33°C° 0 mm 3 mps 724 mmHg 38%
21:00 +31°C° 0 mm 3 mps 723 mmHg 41%
22:00 +30°C° 0 mm 2 mps 723 mmHg 45%
23:00 +29°C° 0 mm 2 mps 723 mmHg 49%

9 August, Sunday

Time Temperature Precipitation Wind Pressure Humidity
00:00 +28°C° 0 mm 1 mps 722 mmHg 51%
01:00 +27°C° 0 mm 1 mps 722 mmHg 53%
02:00 +27°C° 0 mm 1 mps 722 mmHg 55%
03:00 +26°C° 0 mm 1 mps 722 mmHg 57%
04:00 +26°C° 0 mm 1 mps 722 mmHg 58%
05:00 +26°C° 0 mm 1 mps 722 mmHg 60%
06:00 +27°C° 0 mm 1 mps 722 mmHg 54%
07:00 +29°C° 0 mm 1 mps 722 mmHg 49%
08:00 +31°C° 0 mm 1 mps 722 mmHg 43%
09:00 +34°C° 0 mm 2 mps 722 mmHg 37%
10:00 +37°C° 0 mm 2 mps 722 mmHg 30%
11:00 +40°C° 0 mm 3 mps 722 mmHg 24%
12:00 +42°C° 0 mm 3 mps 722 mmHg 21%
13:00 +44°C° 0 mm 4 mps 722 mmHg 18%
14:00 +45°C° 0 mm 4 mps 721 mmHg 15%
15:00 +43°C° 0 mm 5 mps 721 mmHg 19%
16:00 +43°C° 0 mm 7 mps 721 mmHg 22%
17:00 +40°C° 0 mm 8 mps 721 mmHg 26%
18:00 +38°C° 0 mm 7 mps 721 mmHg 30%
19:00 +34°C° 0 mm 6 mps 722 mmHg 35%
20:00 +32°C° 0 mm 5 mps 722 mmHg 40%
21:00 +30°C° 0 mm 4 mps 722 mmHg 44%
22:00 +29°C° 0 mm 3 mps 722 mmHg 49%
23:00 +28°C° 0 mm 1 mps 721 mmHg 53%

10 August, Monday

Time Temperature Precipitation Wind Pressure Humidity
00:00 +27°C° 0 mm 1 mps 721 mmHg 54%
01:00 +27°C° 0 mm 1 mps 720 mmHg 55%
02:00 +26°C° 0 mm 1 mps 720 mmHg 57%
03:00 +26°C° 0 mm 1 mps 720 mmHg 59%
04:00 +25°C° 0 mm 2 mps 720 mmHg 61%
05:00 +25°C° 0 mm 2 mps 720 mmHg 63%
06:00 +26°C° 0 mm 2 mps 720 mmHg 59%
07:00 +27°C° 0 mm 2 mps 720 mmHg 54%
08:00 +28°C° 0 mm 2 mps 721 mmHg 50%
09:00 +30°C° 0 mm 2 mps 721 mmHg 44%
10:00 +33°C° 0 mm 3 mps 721 mmHg 39%
11:00 +35°C° 0 mm 3 mps 721 mmHg 33%
12:00 +36°C° 0 mm 3 mps 721 mmHg 30%
13:00 +38°C° 0 mm 3 mps 720 mmHg 27%
14:00 +40°C° 0 mm 4 mps 720 mmHg 23%
15:00 +40°C° 0 mm 4 mps 720 mmHg 24%
16:00 +39°C° 0 mm 5 mps 720 mmHg 25%
17:00 +39°C° 0 mm 6 mps 720 mmHg 25%
18:00 +35°C° 0 mm 5 mps 721 mmHg 33%
19:00 +32°C° 0 mm 4 mps 721 mmHg 40%
20:00 +28°C° 0 mm 3 mps 722 mmHg 47%
21:00 +28°C° 0 mm 2 mps 721 mmHg 50%
22:00 +27°C° 0 mm 2 mps 721 mmHg 53%
23:00 +26°C° 0 mm 2 mps 721 mmHg 56%
Show more